Sigonella, Italy

3:41 PM CEST on August 16, 2017 (GMT +0200)
Sigonella Mil

Weather History for LICZ - February, 2013

Change the Weather History Date:

Friday, February 1, 2013

  Actual Average Record
Temperature  
Mean Temperature 56 °F -  
Max Temperature 72 °F 61 °F 72 °F (2013)
Min Temperature 41 °F 42 °F 30 °F (1999)
Degree Days  
Heating Degree Days 8    
Growing Degree Days 6 (Base 50)    
Moisture  
Dew Point 48 °F    
Average Humidity 81    
Maximum Humidity 100    
Minimum Humidity 23    
Precipitation  
Precipitation 0.00 in 0.06 in - ()
Sea Level Pressure  
Sea Level Pressure 30.08 in    
Wind  
Wind Speed 7 mph ()    
Max Wind Speed 16 mph    
Max Gust Speed -    
Visibility 7.8 miles    
Events      
Averages and records for this station are not official NWS values.
T = Trace of Precipitation, MM = Missing Value Source: Averaged Metar Reports

Daily Weather History Graph

Daily Weather History Graph

Search for Another Location

Airport or City:

Trip Planner

Search our weather history database for the weather conditions in past years. The results will help you decide how hot, cold, wet, or windy it might be!

Date:

Astronomy

Feb. 01, 2013 Rise Set
Actual Time 7:03 AM CET 5:24 PM CET
Civil Twilight 6:36 AM CET 5:52 PM CET
Nautical Twilight 6:04 AM CET 6:23 PM CET
Astronomical Twilight 5:34 AM CET 6:54 PM CET
Moon 11:04 PM CET (2/1) 9:34 AM CET (2/1)
Length of Visible Light 11h 16m
Length of Day
10h 21m
Waning Gibbous, 73% of the Moon is Illuminated
Feb 1
Waning Gibbous
Feb 3
Last Quarter
Feb 10
New
Feb 17
First Quarter
Feb 25
Full

Hourly Weather History & Observations

Time (CET) Temp. Windchill Dew Point Humidity Pressure Visibility Wind Dir Wind Speed Gust Speed Precip Events Conditions
12:55 AM 46.4 °F 43.5 °F 46.4 °F 100% 30.21 in - WSW 5.8 mph - N/A   Clear
1:00 AM 46 °F - 46 °F 98% 30.24 in 9 mi WSW 5.8 mph - -  
1:55 AM 41.0 °F 36.4 °F 41.0 °F 100% 30.21 in - West 6.9 mph - N/A   Clear
2:55 AM 44.6 °F 43.1 °F 44.6 °F 100% 30.21 in - NNW 3.5 mph - N/A   Clear
3:55 AM 41.0 °F 38.0 °F 41.0 °F 100% 30.18 in - West 4.6 mph - N/A   Clear
4:00 AM 41 °F - 41 °F 100% 30.20 in 9 mi West 4.6 mph - -  
4:55 AM 44.6 °F 38.4 °F 44.6 °F 100% 30.15 in - NW 12.7 mph - N/A   Clear
5:55 AM 44.6 °F 39.7 °F 44.6 °F 100% 30.15 in - NW 9.2 mph - N/A   Clear
6:55 AM 46.4 °F - 46.4 °F 100% 30.15 in - SE 2.3 mph - N/A   Clear
7:55 AM 46.4 °F - 44.6 °F 93% 30.12 in - West 2.3 mph - N/A   Clear
8:55 AM 51.8 °F - 50.0 °F 94% 30.12 in - NNW 4.6 mph - N/A   Clear
9:55 AM 60.8 °F - 53.6 °F 77% 30.09 in - SW 2.3 mph - N/A   Clear
10:00 AM 60 °F - 53 °F 72% 30.12 in 9 mi SW 2.3 mph - -   Clear
10:55 AM 64.4 °F - 44.6 °F 49% 30.12 in - West 13.8 mph - N/A   Clear
11:55 AM 68.0 °F - 42.8 °F 40% 30.09 in - West 13.8 mph - N/A   Clear
12:55 PM 68.0 °F - 41.0 °F 37% 30.06 in - West 16.1 mph - N/A   Clear
1:55 PM 68.0 °F - 42.8 °F 40% 30.04 in - WSW 16.1 mph - N/A   Clear
2:55 PM 68.0 °F - 39.2 °F 35% 30.01 in - West 13.8 mph - N/A   Clear
3:55 PM 68.0 °F - 39.2 °F 35% 30.01 in - West 9.2 mph - N/A   Clear
4:00 PM 68 °F - 39 °F 23% 30.01 in 10 mi West 9.2 mph - -   Clear
4:55 PM 64.4 °F - 53.6 °F 68% 30.01 in 6.2 mi West 11.5 mph - N/A   Partly Cloudy
5:55 PM 57.2 °F - 55.4 °F 94% 30.01 in 6.2 mi NE 2.3 mph - N/A   Partly Cloudy
6:55 PM 57.2 °F - 55.4 °F 94% 30.01 in - West 13.8 mph - N/A   Clear
7:00 PM 58 °F - 56 °F 89% 30.01 in 9 mi West 13.8 mph - -   Clear
7:55 PM 57.2 °F - 55.4 °F 94% 30.01 in 6.2 mi West 13.8 mph - N/A   Partly Cloudy
8:55 PM 55.4 °F - 55.4 °F 100% 30.01 in - West 11.5 mph - N/A   Clear
9:55 PM 55.4 °F - 55.4 °F 100% 30.01 in - West 10.4 mph - N/A   Clear
10:00 PM 55 °F - 55 °F 98% 30.01 in 6 mi West 10.4 mph - -   Clear
10:55 PM 51.8 °F - 51.8 °F 100% 29.98 in - WSW 9.2 mph - N/A   Clear
11:55 PM 53.6 °F - 51.8 °F 94% 29.95 in - West 11.5 mph - N/A   Clear